Location: Unspecified
(0.0000°N, 0.0000°E)
Time: 03:56:18
(UTC+00:00)

ARIANE 1 DEB - Visible Passes

Search period start: 14 February 2026 00:00
Search period end: 24 February 2026 00:00
Orbit: 1090 x 21662 km, 16.1° (Epoch: 9 December)

Date Brightness Start Highest point End Pass type
(mag) Time Alt. Az. Time Alt. Az. Time Alt. Az.
14 Feb ? 00:31:05 10° W 05:13:22 81° SSE 05:30:06 10° E visible
14 Feb ? 19:11:19 10° WNW 19:52:53 80° SSW 00:38:39 10° E visible
15 Feb ? 06:48:21 10° WSW 07:38:30 70° NNW 07:46:48 10° ENE visible
15 Feb ? 21:36:52 10° W 02:14:28 70° S 03:06:40 10° E visible
16 Feb ? 16:48:52 10° WNW 17:04:22 81° NNE 21:35:46 10° ESE visible
17 Feb ? 00:28:30 10° W 05:09:47 83° SSE 05:26:22 10° ENE visible
17 Feb ? 19:07:37 10° W 19:49:46 78° SSW 00:35:17 10° E visible
18 Feb ? 06:45:35 10° WSW 07:34:43 67° NNW 07:43:00 10° ENE visible
18 Feb ? 21:33:26 10° W 02:12:30 71° S 03:03:03 10° E visible
19 Feb ? 16:45:05 10° WNW 17:00:37 83° NNE 21:33:05 10° ESE visible
20 Feb ? 00:25:56 10° WSW 05:06:10 85° SSE 05:22:38 10° ENE visible
20 Feb ? 19:03:56 10° W 19:46:46 77° SSW 00:31:54 10° E visible
21 Feb ? 06:42:53 10° WSW 07:30:54 64° NNW 07:39:12 10° ENE visible
21 Feb ? 21:30:00 10° W 02:10:19 72° S 02:59:26 10° E visible
22 Feb ? 16:41:19 10° WNW 16:56:54 86° NNE 21:30:28 10° ESE visible
23 Feb ? 00:23:20 10° WSW 05:02:32 87° SSE 05:18:53 10° ENE visible
